| time (UTC) | temp C | wind direction | speed KPH | gust KPH | rain 1hr cm | rain 24hr cm | rain mn cm | humidity % | barometer mb |
| 20260507205122 | 18 | 161 | 0.0 | 0.0 | 0.00 | 0.91 | 0.08 | 62 | 1005.3 |
| 20260507202052 | 18 | 196 | 0.0 | 0.0 | 0.00 | 0.91 | 0.08 | 60 | 1005.5 |
| 20260507195122 | 18 | 157 | 0.0 | 12.9 | 0.00 | 0.91 | 0.08 | 62 | 1005.9 |
| 20260507185122 | 17 | 130 | 0.0 | 0.0 | 0.00 | 0.91 | 0.08 | 60 | 1006.7 |
| 20260507182052 | 17 | 150 | 0.0 | 11.3 | 0.00 | 0.91 | 0.08 | 59 | 1006.9 |
| 20260507175122 | 17 | 214 | 0.0 | 9.7 | 0.00 | 0.91 | 0.08 | 62 | 1007.3 |
| 20260507172053 | 16 | 55 | 0.0 | 9.7 | 0.00 | 0.91 | 0.08 | 63 | 1007.7 |
| 20260507165122 | 15 | 11 | 1.6 | 8.0 | 0.00 | 0.91 | 0.08 | 68 | 1008.2 |
| 20260507162052 | 13 | 11 | 0.0 | 4.8 | 0.00 | 0.91 | 0.08 | 69 | 1008.7 |
| 20260507155122 | 12 | 335 | 0.0 | 6.4 | 0.00 | 0.91 | 0.08 | 72 | 1009.2 |
| 20260507152052 | 12 | 350 | 0.0 | 9.7 | 0.00 | 0.91 | 0.08 | 76 | 1009.2 |
| 20260507145122 | 12 | 5 | 1.6 | 17.7 | 0.00 | 0.91 | 0.08 | 78 | 1009.5 |
| 20260507142052 | 11 | 360 | 4.8 | 12.9 | 0.00 | 0.91 | 0.08 | 81 | 1010.0 |
| 20260507135122 | 11 | 350 | 1.6 | 14.5 | 0.00 | 0.91 | 0.08 | 87 | 1010.0 |
| 20260507132052 | 11 | 336 | 1.6 | 4.8 | 0.00 | 0.91 | 0.08 | 89 | 1010.1 |
| 20260507122052 | 11 | 298 | 0.0 | 4.8 | 0.00 | 1.07 | 0.08 | 91 | 1010.2 |
| 20260507115122 | 11 | 312 | 0.0 | 4.8 | 0.00 | 1.14 | 0.08 | 92 | 1009.7 |
| 20260507112052 | 11 | 309 | 0.0 | 4.8 | 0.00 | 1.14 | 0.08 | 91 | 1009.7 |
| 20260507105122 | 11 | 309 | 0.0 | 3.2 | 0.00 | 1.17 | 0.08 | 91 | 1009.3 |
| 20260507102052 | 11 | 301 | 0.0 | 4.8 | 0.00 | 1.17 | 0.08 | 92 | 1009.5 |
| 20260507095123 | 11 | 300 | 0.0 | 4.8 | 0.00 | 1.17 | 0.08 | 92 | 1009.2 |
| 20260507092053 | 11 | 302 | 1.6 | 4.8 | 0.00 | 1.17 | 0.08 | 92 | 1009.1 |
| 20260507085122 | 11 | 309 | 0.0 | 4.8 | 0.00 | 1.17 | 0.08 | 92 | 1008.9 |
| 20260507082122 | 11 | 327 | 1.6 | 4.8 | 0.00 | 1.17 | 0.08 | 92 | 1008.9 |
| 20260507072122 | 12 | 337 | 1.6 | 17.7 | 0.00 | 1.17 | 0.08 | 93 | 1008.2 |
| 20260507065122 | 12 | 355 | 11.3 | 11.3 | 0.00 | 1.17 | 0.08 | 93 | 1008.4 |
| 20260507055122 | 13 | 348 | 0.0 | 17.7 | 0.00 | 1.17 | 0.08 | 94 | 1008.5 |
| 20260507045122 | 14 | 302 | 0.0 | 17.7 | 0.08 | 1.17 | 0.08 | 94 | 1007.8 |
| 20260507042122 | 14 | 321 | 0.0 | 0.0 | 0.20 | 1.14 | 0.05 | 94 | 1007.3 |
| 20260507035122 | 15 | 323 | 0.0 | 16.1 | 0.25 | 1.09 | 0.00 | 93 | 1008.5 |
| 20260507032122 | 16 | 303 | 3.2 | 12.9 | 0.10 | 0.94 | 0.94 | 93 | 1007.9 |
| 20260507025122 | 16 | 325 | 0.0 | 0.0 | 0.03 | 0.84 | 0.84 | 93 | 1007.9 |
| 20260507022122 | 17 | 327 | 0.0 | 0.0 | 0.03 | 0.84 | 0.84 | 93 | 1006.7 |
| 20260507015122 | 17 | 303 | 0.0 | 0.0 | 0.00 | 0.81 | 0.81 | 92 | 1007.1 |
| 20260507012122 | 17 | 355 | 0.0 | 0.0 | 0.00 | 0.81 | 0.81 | 92 | 1006.3 |
| 20260507005122 | 18 | 329 | 0.0 | 0.0 | 0.41 | 0.81 | 0.81 | 91 | 1007.1 |
| 20260507002122 | 18 | 329 | 0.0 | 0.0 | 0.56 | 0.81 | 0.81 | 88 | 1006.5 |
| 20260506235122 | 21 | 298 | 0.0 | 0.0 | 0.15 | 0.41 | 0.41 | 83 | 1006.1 |
| 20260506232121 | 22 | 200 | 0.0 | 12.9 | 0.00 | 0.25 | 0.25 | 72 | 1005.8 |
| 20260506225121 | 23 | 131 | 6.4 | 14.5 | 0.00 | 0.25 | 0.25 | 68 | 1005.1 |
| 20260506222121 | 23 | 171 | 1.6 | 17.7 | 0.00 | 0.25 | 0.25 | 68 | 1005.4 |